Terminal Aerodrome Forecast
Issued by NWS Louisville, KY

Home | Current Version | Previous Version | Text Only | Print | Product List | Glossary On
Versions: 1 2 3 4 5 6 7 8 9 10 11 12 13 14 15 16 17 18 19 20 21 22 23
000
FTUS43 KLMK 150500
TAFLEX
TAF
KLEX 150529Z 1506/1606 VRB03KT P6SM SKC
     FM150900 00000KT 5SM BR SCT250
     FM151100 00000KT 2SM BR BKN250
     FM151400 22006KT P6SM FEW050 BKN150=

USA.gov is the U.S. government's official web portal to all federal, state and local government web resources and services.